Grub im Wienerwald
Wetterdaten: aktuell Dienstag, 29.09.2020 03:21
Datum Zeit Temp. A. Feuchte A. Luftdruck Regen Wind Richtung Richtung Sonnenschein UV Solar Taupunkt Windchill Windben
29.09.2020 03:21 9,0 C 97 % 1012,9 hPa 0,0 l/m 9,5 km/h N-NW 327 0 min 0,0 UV-I 0 W/m 8,5 C 6,8 C 17,7 km/h
29.09.2020 03:18 9,0 C 97 % 1012,9 hPa 0,0 l/m 8,7 km/h N-NW 331 0 min 0,0 UV-I 0 W/m 8,5 C 7,3 C 14,5 km/h
29.09.2020 03:15 9,0 C 97 % 1012,9 hPa 0,0 l/m 5,4 km/h NW 306 0 min 0,0 UV-I 0 W/m 8,5 C 9,0 C 9,7 km/h
29.09.2020 03:12 9,0 C 93 % 1012,9 hPa 0,0 l/m 8,9 km/h W-NW 297 0 min 0,0 UV-I 0 W/m 7,9 C 7,2 C 20,9 km/h
29.09.2020 03:09 8,9 C 93 % 1013,0 hPa 0,0 l/m 11,3 km/h NW 324 0 min 0,0 UV-I 0 W/m 7,8 C 5,6 C 22,5 km/h
29.09.2020 03:06 9,0 C 93 % 1012,9 hPa 0,0 l/m 8,7 km/h N-NW 334 0 min 0,0 UV-I 0 W/m 7,9 C 7,3 C 12,9 km/h
29.09.2020 03:03 9,0 C 97 % 1012,9 hPa 0,0 l/m 8,6 km/h W-NW 287 0 min 0,0 UV-I 0 W/m 8,5 C 7,4 C 19,3 km/h
29.09.2020 03:00 9,0 C 97 % 1013,0 hPa 0,0 l/m 8,7 km/h NW 319 0 min 0,0 UV-I 0 W/m 8,5 C 7,3 C 17,7 km/h
29.09.2020 02:57 9,0 C 93 % 1012,9 hPa 0,0 l/m 7,5 km/h NW 320 0 min 0,0 UV-I 0 W/m 7,9 C 8,2 C 14,5 km/h
29.09.2020 02:54 9,0 C 93 % 1012,9 hPa 0,0 l/m 11,3 km/h N-NW 334 0 min 0,0 UV-I 0 W/m 7,9 C 5,7 C 25,7 km/h
29.09.2020 02:51 8,9 C 93 % 1013,0 hPa 0,0 l/m 9,5 km/h NW 317 0 min 0,0 UV-I 0 W/m 7,8 C 6,7 C 19,3 km/h
29.09.2020 02:48 8,9 C 93 % 1012,9 hPa 0,0 l/m 10,0 km/h N 9 0 min 0,0 UV-I 0 W/m 7,8 C 6,4 C 16,1 km/h
29.09.2020 02:45 8,9 C 93 % 1013,0 hPa 0,0 l/m 10,4 km/h NW 322 0 min 0,0 UV-I 0 W/m 7,8 C 6,1 C 17,7 km/h
29.09.2020 02:42 8,9 C 93 % 1013,1 hPa 0,0 l/m 10,3 km/h N-NW 338 0 min 0,0 UV-I 0 W/m 7,8 C 6,2 C 25,7 km/h
29.09.2020 02:39 8,9 C 93 % 1013,0 hPa 0,0 l/m 9,9 km/h N-NW 335 0 min 0,0 UV-I 0 W/m 7,8 C 6,4 C 19,3 km/h
29.09.2020 02:36 8,9 C 93 % 1012,9 hPa 0,0 l/m 8,1 km/h NW 323 0 min 0,0 UV-I 0 W/m 7,8 C 7,6 C 22,5 km/h
29.09.2020 02:33 8,9 C 93 % 1012,9 hPa 0,0 l/m 9,5 km/h N-NW 333 0 min 0,0 UV-I 0 W/m 7,8 C 6,7 C 16,1 km/h
29.09.2020 02:30 8,9 C 93 % 1012,9 hPa 0,0 l/m 10,5 km/h NW 313 0 min 0,0 UV-I 0 W/m 7,8 C 6,1 C 17,7 km/h
29.09.2020 02:27 8,9 C 93 % 1012,9 hPa 0,0 l/m 7,8 km/h NW 308 0 min 0,0 UV-I 0 W/m 7,8 C 7,8 C 17,7 km/h
29.09.2020 02:24 8,9 C 93 % 1012,8 hPa 0,0 l/m 7,8 km/h NW 314 0 min 0,0 UV-I 0 W/m 7,8 C 7,8 C 25,7 km/h
29.09.2020 02:21 8,9 C 93 % 1012,8 hPa 0,0 l/m 13,3 km/h N 360 0 min 0,0 UV-I 0 W/m 7,8 C 4,6 C 25,7 km/h
29.09.2020 02:18 8,9 C 93 % 1012,9 hPa 0,0 l/m 10,2 km/h W-NW 292 0 min 0,0 UV-I 0 W/m 7,8 C 6,3 C 20,9 km/h
29.09.2020 02:15 8,9 C 94 % 1013,0 hPa 0,0 l/m 12,6 km/h NW 306 0 min 0,0 UV-I 0 W/m 8,0 C 4,9 C 29,0 km/h
29.09.2020 02:12 8,9 C 94 % 1012,9 hPa 0,0 l/m 10,1 km/h NW 306 0 min 0,0 UV-I 0 W/m 8,0 C 6,3 C 17,7 km/h
29.09.2020 02:09 8,9 C 94 % 1012,9 hPa 0,0 l/m 11,1 km/h NW 326 0 min 0,0 UV-I 0 W/m 8,0 C 5,7 C 20,9 km/h
29.09.2020 02:06 8,9 C 94 % 1012,8 hPa 0,0 l/m 12,3 km/h W-NW 298 0 min 0,0 UV-I 0 W/m 8,0 C 5,1 C 20,9 km/h
29.09.2020 02:03 8,9 C 94 % 1012,8 hPa 0,0 l/m 8,9 km/h NW 320 0 min 0,0 UV-I 0 W/m 8,0 C 7,1 C 16,1 km/h
29.09.2020 02:00 8,9 C 94 % 1012,8 hPa 0,0 l/m 9,6 km/h N-NW 335 0 min 0,0 UV-I 0 W/m 8,0 C 6,6 C 16,1 km/h
29.09.2020 01:57 8,9 C 94 % 1012,7 hPa 0,0 l/m 9,9 km/h N-NW 339 0 min 0,0 UV-I 0 W/m 8,0 C 6,4 C 17,7 km/h
29.09.2020 01:54 8,9 C 94 % 1012,7 hPa 0,0 l/m 9,0 km/h N-NW 331 0 min 0,0 UV-I 0 W/m 8,0 C 7,0 C 22,5 km/h
29.09.2020 01:51 8,9 C 94 % 1012,8 hPa 0,0 l/m 11,7 km/h N-NW 333 0 min 0,0 UV-I 0 W/m 8,0 C 5,4 C 20,9 km/h
29.09.2020 01:48 8,8 C 94 % 1012,7 hPa 0,0 l/m 8,5 km/h NW 316 0 min 0,0 UV-I 0 W/m 7,9 C 7,2 C 14,5 km/h
29.09.2020 01:45 8,8 C 94 % 1012,7 hPa 0,0 l/m 8,3 km/h N-NW 336 0 min 0,0 UV-I 0 W/m 7,9 C 7,4 C 17,7 km/h
29.09.2020 01:42 8,8 C 94 % 1012,6 hPa 0,0 l/m 7,7 km/h N 5 0 min 0,0 UV-I 0 W/m 7,9 C 7,8 C 16,1 km/h
29.09.2020 01:39 8,8 C 94 % 1012,7 hPa 0,0 l/m 7,6 km/h NW 323 0 min 0,0 UV-I 0 W/m 7,9 C 7,9 C 17,7 km/h
29.09.2020 01:36 8,8 C 94 % 1012,6 hPa 0,0 l/m 9,3 km/h NW 325 0 min 0,0 UV-I 0 W/m 7,9 C 6,7 C 22,5 km/h
29.09.2020 01:33 8,8 C 94 % 1012,7 hPa 0,0 l/m 11,9 km/h NW 317 0 min 0,0 UV-I 0 W/m 7,9 C 5,2 C 22,5 km/h
29.09.2020 01:30 8,8 C 94 % 1012,7 hPa 0,0 l/m 8,0 km/h N-NW 328 0 min 0,0 UV-I 0 W/m 7,9 C 7,6 C 17,7 km/h
29.09.2020 01:27 8,8 C 94 % 1012,7 hPa 0,0 l/m 8,0 km/h NW 306 0 min 0,0 UV-I 0 W/m 7,9 C 7,6 C 14,5 km/h
29.09.2020 01:24 8,8 C 94 % 1012,7 hPa 0,0 l/m 9,4 km/h N-NW 339 0 min 0,0 UV-I 0 W/m 7,9 C 6,6 C 17,7 km/h
29.09.2020 01:21 8,8 C 94 % 1012,8 hPa 0,0 l/m 7,8 km/h N-NW 327 0 min 0,0 UV-I 0 W/m 7,9 C 7,7 C 16,1 km/h
29.09.2020 01:18 8,8 C 94 % 1012,8 hPa 0,0 l/m 9,8 km/h NW 317 0 min 0,0 UV-I 0 W/m 7,9 C 6,4 C 16,1 km/h
29.09.2020 01:15 8,8 C 94 % 1012,8 hPa 0,0 l/m 9,1 km/h N-NW 330 0 min 0,0 UV-I 0 W/m 7,9 C 6,8 C 20,9 km/h
29.09.2020 01:12 8,8 C 94 % 1012,8 hPa 0,0 l/m 7,6 km/h NW 324 0 min 0,0 UV-I 0 W/m 7,9 C 7,9 C 14,5 km/h
29.09.2020 01:09 8,8 C 94 % 1012,8 hPa 0,0 l/m 8,2 km/h N-NW 341 0 min 0,0 UV-I 0 W/m 7,9 C 7,5 C 17,7 km/h
29.09.2020 01:06 8,8 C 95 % 1012,8 hPa 0,0 l/m 10,2 km/h NW 319 0 min 0,0 UV-I 0 W/m 8,0 C 6,1 C 20,9 km/h
29.09.2020 01:03 8,8 C 95 % 1012,8 hPa 0,0 l/m 9,3 km/h NW 306 0 min 0,0 UV-I 0 W/m 8,0 C 6,7 C 19,3 km/h
29.09.2020 01:00 8,8 C 95 % 1012,7 hPa 0,0 l/m 7,6 km/h NW 319 0 min 0,0 UV-I 0 W/m 8,0 C 7,9 C 14,5 km/h
29.09.2020 00:57 8,7 C 95 % 1012,8 hPa 0,0 l/m 8,0 km/h NW 321 0 min 0,0 UV-I 0 W/m 7,9 C 7,5 C 14,5 km/h
29.09.2020 00:54 8,7 C 95 % 1012,8 hPa 0,0 l/m 7,4 km/h NW 321 0 min 0,0 UV-I 0 W/m 7,9 C 7,9 C 12,9 km/h
29.09.2020 00:51 8,7 C 95 % 1012,8 hPa 0,0 l/m 4,6 km/h NW 313 0 min 0,0 UV-I 0 W/m 7,9 C 8,7 C 11,3 km/h
29.09.2020 00:48 8,7 C 95 % 1012,8 hPa 0,0 l/m 5,5 km/h NW 315 0 min 0,0 UV-I 0 W/m 7,9 C 8,7 C 14,5 km/h
29.09.2020 00:45 8,7 C 95 % 1012,9 hPa 0,0 l/m 4,9 km/h N-NW 346 0 min 0,0 UV-I 0 W/m 7,9 C 8,7 C 12,9 km/h
29.09.2020 00:42 8,7 C 95 % 1013,0 hPa 0,0 l/m 4,4 km/h N-NW 333 0 min 0,0 UV-I 0 W/m 7,9 C 8,7 C 11,3 km/h
29.09.2020 00:39 8,7 C 95 % 1013,0 hPa 0,0 l/m 6,9 km/h N-NW 336 0 min 0,0 UV-I 0 W/m 7,9 C 8,3 C 14,5 km/h
29.09.2020 00:36 8,7 C 95 % 1013,0 hPa 0,0 l/m 5,5 km/h NW 307 0 min 0,0 UV-I 0 W/m 7,9 C 8,7 C 14,5 km/h
29.09.2020 00:33 8,7 C 95 % 1013,0 hPa 0,0 l/m 9,1 km/h NW 307 0 min 0,0 UV-I 0 W/m 7,9 C 6,7 C 16,1 km/h
29.09.2020 00:30 8,6 C 95 % 1013,0 hPa 0,0 l/m 7,5 km/h NW 323 0 min 0,0 UV-I 0 W/m 7,8 C 7,8 C 12,9 km/h
29.09.2020 00:27 8,6 C 95 % 1013,0 hPa 0,0 l/m 5,6 km/h W 277 0 min 0,0 UV-I 0 W/m 7,8 C 8,6 C 16,1 km/h
29.09.2020 00:24 8,6 C 95 % 1013,0 hPa 0,0 l/m 6,8 km/h W 278 0 min 0,0 UV-I 0 W/m 7,8 C 8,3 C 17,7 km/h
29.09.2020 00:21 8,6 C 94 % 1013,1 hPa 0,0 l/m 6,8 km/h N-NW 333 0 min 0,0 UV-I 0 W/m 7,7 C 8,3 C 16,1 km/h
29.09.2020 00:18 8,6 C 94 % 1013,1 hPa 0,0 l/m 4,9 km/h N-NW 333 0 min 0,0 UV-I 0 W/m 7,7 C 8,6 C 8,0 km/h
29.09.2020 00:15 8,6 C 94 % 1013,0 hPa 0,0 l/m 5,3 km/h N-NW 333 0 min 0,0 UV-I 0 W/m 7,7 C 8,6 C 11,3 km/h
29.09.2020 00:12 8,6 C 94 % 1013,0 hPa 0,0 l/m 8,3 km/h N-NW 331 0 min 0,0 UV-I 0 W/m 7,7 C 7,2 C 11,3 km/h
29.09.2020 00:09 8,6 C 94 % 1013,0 hPa 0,0 l/m 7,4 km/h NW 323 0 min 0,0 UV-I 0 W/m 7,7 C 7,8 C 12,9 km/h
29.09.2020 00:06 8,6 C 94 % 1013,0 hPa 0,0 l/m 7,5 km/h NW 320 0 min 0,0 UV-I 0 W/m 7,7 C 7,8 C 14,5 km/h
29.09.2020 00:03 8,6 C 94 % 1013,0 hPa 0,0 l/m 6,7 km/h NW 316 0 min 0,0 UV-I 0 W/m 7,7 C 8,4 C 14,5 km/h
29.09.2020 00:00 8,6 C 94 % 1013,0 hPa 0,0 l/m 4,0 km/h NW 321 0 min 0,0 UV-I 0 W/m 7,7 C 8,6 C 8,0 km/h
28.09.2020 23:57 8,6 C 94 % 1012,9 hPa 0,0 l/m 8,1 km/h NW 321 0 min 0,0 UV-I 0 W/m 7,7 C 7,3 C 14,5 km/h
28.09.2020 23:54 8,6 C 94 % 1013,0 hPa 0,0 l/m 5,1 km/h W-NW 292 0 min 0,0 UV-I 0 W/m 7,7 C 8,6 C 9,7 km/h
28.09.2020 23:51 8,7 C 94 % 1013,0 hPa 0,0 l/m 7,9 km/h W-NW 295 0 min 0,0 UV-I 0 W/m 7,8 C 7,6 C 16,1 km/h
28.09.2020 23:48 8,7 C 94 % 1013,0 hPa 0,0 l/m 6,8 km/h N-NW 336 0 min 0,0 UV-I 0 W/m 7,8 C 8,4 C 19,3 km/h
28.09.2020 23:45 8,7 C 94 % 1013,0 hPa 0,0 l/m 5,4 km/h W-NW 297 0 min 0,0 UV-I 0 W/m 7,8 C 8,7 C 9,7 km/h
28.09.2020 23:42 8,7 C 94 % 1012,9 hPa 0,0 l/m 4,5 km/h W-NW 295 0 min 0,0 UV-I 0 W/m 7,8 C 8,7 C 12,9 km/h
28.09.2020 23:39 8,7 C 94 % 1013,0 hPa 0,0 l/m 5,2 km/h NW 315 0 min 0,0 UV-I 0 W/m 7,8 C 8,7 C 9,7 km/h
28.09.2020 23:36 8,7 C 94 % 1013,0 hPa 0,0 l/m 8,0 km/h NW 311 0 min 0,0 UV-I 0 W/m 7,8 C 7,5 C 14,5 km/h
28.09.2020 23:33 8,8 C 94 % 1012,9 hPa 0,0 l/m 8,5 km/h N-NW 337 0 min 0,0 UV-I 0 W/m 7,9 C 7,2 C 17,7 km/h
28.09.2020 23:30 8,8 C 95 % 1013,0 hPa 0,0 l/m 6,7 km/h N-NW 345 0 min 0,0 UV-I 0 W/m 8,0 C 8,6 C 12,9 km/h
28.09.2020 23:27 8,8 C 95 % 1012,8 hPa 0,0 l/m 9,2 km/h N-NW 329 0 min 0,0 UV-I 0 W/m 8,0 C 6,8 C 16,1 km/h
28.09.2020 23:24 8,8 C 95 % 1012,8 hPa 0,0 l/m 9,4 km/h N-NW 348 0 min 0,0 UV-I 0 W/m 8,0 C 6,6 C 22,5 km/h
28.09.2020 23:21 8,8 C 95 % 1012,8 hPa 0,0 l/m 6,0 km/h N-NW 337 0 min 0,0 UV-I 0 W/m 8,0 C 8,8 C 12,9 km/h
28.09.2020 23:18 8,8 C 95 % 1012,8 hPa 0,0 l/m 6,8 km/h N-NW 332 0 min 0,0 UV-I 0 W/m 8,0 C 8,5 C 12,9 km/h
28.09.2020 23:15 8,9 C 95 % 1012,7 hPa 0,0 l/m 7,1 km/h N-NW 330 0 min 0,0 UV-I 0 W/m 8,1 C 8,4 C 14,5 km/h
28.09.2020 23:12 8,9 C 95 % 1012,7 hPa 0,0 l/m 5,2 km/h NW 325 0 min 0,0 UV-I 0 W/m 8,1 C 8,9 C 9,7 km/h
28.09.2020 23:09 8,9 C 95 % 1012,6 hPa 0,0 l/m 7,0 km/h NW 325 0 min 0,0 UV-I 0 W/m 8,1 C 8,4 C 12,9 km/h
28.09.2020 23:06 8,9 C 95 % 1012,6 hPa 0,0 l/m 7,9 km/h W-NW 284 0 min 0,0 UV-I 0 W/m 8,1 C 7,8 C 17,7 km/h
28.09.2020 23:03 8,9 C 95 % 1012,6 hPa 0,0 l/m 7,8 km/h NW 312 0 min 0,0 UV-I 0 W/m 8,1 C 7,8 C 19,3 km/h
28.09.2020 23:00 8,9 C 95 % 1012,5 hPa 0,0 l/m 7,9 km/h NW 315 0 min 0,0 UV-I 0 W/m 8,1 C 7,8 C 20,9 km/h
28.09.2020 22:57 8,9 C 95 % 1012,5 hPa 0,0 l/m 8,6 km/h NW 312 0 min 0,0 UV-I 0 W/m 8,1 C 7,3 C 14,5 km/h
28.09.2020 22:54 9,0 C 95 % 1012,6 hPa 0,0 l/m 8,0 km/h N 355 0 min 0,0 UV-I 0 W/m 8,2 C 7,8 C 14,5 km/h
28.09.2020 22:51 9,0 C 95 % 1012,6 hPa 0,0 l/m 7,5 km/h N-NW 335 0 min 0,0 UV-I 0 W/m 8,2 C 8,2 C 11,3 km/h
_ Min-Zeit 04:00 02:18 07:57 - 04:00 - - - - - 04:00 02:21 04:00
Minimum _ 7,4 C 93 % 1006,4 hPa - 0,0 km/h - - - - - 6,8 C 4,6 C 0,0 km/h
_ Max-Zeit 14:36 10:36 00:18 06:54 02:21 - - 14:15 14:09 14:15 14:36 15:09 22:24
Maximum _ 10,7 C 98 % 1013,1 hPa 0,6 l/m 13,3 km/h
N
- - 3 min 2,2 UV-I 336 W/m 10,4 C 10,7 C 29,0 km/h
W-NW
Durchschnitt _ 9,0 C 96 % 1009,4 hPa #21,2 l/m 3,8 km/h N-NW - #0 min. 0,0 UV-I 0 W/m 8,4 C 8,7 C 8,2 km/h
Schulla EDV